Regional Weather Roundup
Issued by NWS

Home | Current Version | Previous Version | Graphics & Text | Print | Product List | Glossary On
Versions: 1 2 3 4 5 6 7 8 9 10 11 12 13 14 15 16 17 18 19 20 21 22 23 24 25 26 27 28 29 30 31 32 33 34 35 36 37 38 39 40 41 42 43 44 45 46 47 48 49 50
000
ASUS45 KCYS 201110
RWRWY

WYOMING REGIONAL WEATHER ROUNDUP
NATIONAL WEATHER SERVICE CHEYENNE WY
500 AM MDT FRI OCT 20 2017

NOTE:  "FAIR" INDICATES FEW OR NO CLOUDS BELOW 12,000 FEET
WITH NO SIGNIFICANT WEATHER AND/OR OBSTRUCTIONS TO VISIBILITY.

WYZ001-201200-
YELLOWSTONE NATIONAL PARK

CITY           SKY/WX    TMP DP  RH WIND       PRES   REMARKS
LK YELLOWSTONE   N/A     25  21  85 NW3       29.75F
W YELLOWSTONE  NOT AVBL

$$
WYZ002>013-054>058-071-098>099-201200-
NORTHERN WYOMING

CITY           SKY/WX    TMP DP  RH WIND       PRES   REMARKS
JACKSON        FAIR      26  21  81 N8        29.71F WCI  18
CODY           FAIR      49  19  30 S9        29.59F
GREYBULL       FAIR      34  28  79 SE6       29.56F WCI  29
WORLAND        FAIR      51  26  37 SE13      29.57F
SHERIDAN       FAIR      40  27  59 NW12      29.53F WCI  33
BUFFALO        FAIR      65  13  13 SW15G22   29.58F
GILLETTE       FAIR      60  28  29 SW21G26   29.57F
HULETT         FAIR      61  30  31 SW12G21   29.60F
NEWCASTLE      FAIR      55  27  33 SE12G17   29.67S

$$
WYZ014>020-022>026-101>103-201200-
CENTRAL WYOMING

CITY           SKY/WX    TMP DP  RH WIND       PRES   REMARKS
BIG PINEY      MOCLDY    35  20  54 NW5       29.78F WCI  31
PINEDALE       CLOUDY    41  23  48 E7        29.79F
DUBOIS         FAIR      41  21  45 W10       29.72F
LANDER         FAIR      46  24  42 VRB5      29.66F
RIVERTON       FAIR      37  25  61 NW5       29.67F WCI  33
CASPER         FAIR      47  29  49 SW8       29.70F
DOUGLAS        FAIR      53  30  41 N5        29.71F

$$
WYZ021-027>030-104>119-201200-
SOUTHERN WYOMING

CITY           SKY/WX    TMP DP  RH WIND       PRES   REMARKS
EVANSTON       FAIR      46  35  65 SW8       29.78F
KEMMERER       CLOUDY    45  32  61 SW3       29.79F
FORT BRIDGER   FAIR      47  32  55 S10       29.80F
ROCK SPRINGS   FAIR      50  25  37 S9        29.78F
DIXON          FAIR      54  29  38 S8        29.87S
RAWLINS        FAIR      48  29  47 SW9       29.82F
SARATOGA       FAIR      45  30  57 S13       29.86F
LARAMIE        FAIR      42  28  57 S8        29.88F
CHEYENNE       FAIR      50  31  48 W13       29.80F
TORRINGTON     FAIR      38  29  70 CALM      29.70F
PINE BLUFFS    FAIR      37  30  75 MISG      29.77F

$$



USA.gov is the U.S. government's official web portal to all federal, state and local government web resources and services.